Other Public Products
Issued by NWS Grand Forks, ND

Home | Current Version | Previous Version | Text Only | Print | Product List | Glossary Off
Versions: 1 2 3 4 5 6 7 8 9 10 11 12 13 14 15 16 17 18 19 20 21 22 23 24 25 26 27 28 29 30 31 32 33 34 35 36 37 38 39 40 41 42 43 44 45 46 47 48 49 50

000
FPUS83 KFGF 121910
OPUFGF
PRAIRIE TO PINES WEATHER ROUNDUP
NATIONAL WEATHER SERVICE EASTERN NORTH DAKOTA/GRAND FORKS ND
100 PM CST TUE DEC 12 2017

 **SATELLITE DATA USED TO AUGMENT SKY COVER AT AUTOMATED STATIONS**
 *****  WEATHER ACROSS EASTERN NORTH DAKOTA  *****

CITY           SKY/WX    TMP DP  RH WIND       PRES   REMARKS
GRAND FORKS    CLOUDY    32  29  88 S8        29.83F WCI  25
GRND FORKS AFB CLOUDY    36  28  71 SW5       29.82F
GRND FORKS NWS   N/A     30 N/A N/A SE6         N/A  WCI  24
BUXTON         NOT AVBL
DEVILS LAKE    FAIR      35  28  75 SW12      29.80F
FARGO          PTSUNNY   33  28  81 S7        29.90F
WAHPETON ARPT  FAIR      36  28  75 W10       29.93F
$$

 *****  WEATHER ACROSS CENTRAL AND WESTERN NORTH DAKOTA  *****

CITY           SKY/WX    TMP DP  RH WIND       PRES   REMARKS
JAMESTOWN      FAIR      37  28  70 W13       29.86F
BISMARCK       FAIR      46  26  45 W13       29.91F
MINOT          FAIR      47  26  44 SW13      29.81F
MINOT AFB      FAIR      45  26  47 W18       29.79F
GARRISON         N/A     46  25  43 W20       29.85F
WILLISTON      FAIR      43  25  49 SW10      29.89F
DICKINSON      FAIR      50  25  37 W18G26    29.92F
HETTINGER      FAIR      55  22  27 W20       29.97F
$$

 *****  OTHER OBSERVATIONS NORTHEAST NORTH DAKOTA  *****

CITY           SKY/WX    TMP DP  RH WIND       PRES   REMARKS
WALHALLA       FAIR      34  34 100 SW7       29.79F
LANGDON        FAIR      36  32  87 SW13      29.78F
CAVALIER       CLOUDY    30  27  86 SE5       29.80F
GRAFTON        CLOUDY    30  28  93 S7        29.83F WCI  23
CANDO          FAIR      39  28  65 W15       29.80F
FORT TOTTEN      N/A     38  27  65 SW6       29.95S
ROLLA          FAIR      36  27  69 SW18      29.74F
RUGBY          FAIR      39  28  65 SW13      29.81F
 ***** THE ABOVE OBSERVATIONS ARE NON NWS ARE NOT QUALITY
        CONTROLLED AND MAY MIS-REPORT RAIN FOR SNOW...
$$

 *****  OTHER OBSERVATIONS SOUTHEAST NORTH DAKOTA *****

CITY           SKY/WX    TMP DP  RH WIND       PRES   REMARKS
COOPERSTOWN    FAIR      36  30  80 SW13      29.84F
VALLEY CITY    FAIR      34  34 100 W15       29.88F WCI  24
OAKES            N/A     36  32  87 SW13      29.92F
GWINNER          N/A     36  30  80 SW18      29.92F
BUFFALO        NOT AVBL
WYNDMERE       NOT AVBL
 ***** THE ABOVE OBSERVATIONS ARE NON NWS ARE NOT QUALITY
       CONTROLLED AND MAY MIS-REPORT RAIN FOR SNOW...
$$

  *****  WEATHER ACROSS NORTHERN MINNESOTA  *****

CITY           SKY/WX    TMP DP  RH WIND       PRES   REMARKS
FLAG ISLAND    CLOUDY    10   7  85 S13       29.86F WCI  -5
WARROAD        CLOUDY    16  10  79 SE7       29.86F WCI   6
ROSEAU         CLOUDY    18  12  79 SE7       29.85F WCI   8
HALLOCK        PTSUNNY   25  21  86 S13       29.81F WCI  13
THF RVR FALLS  CLOUDY    24  22  91 S13       29.85F WCI  12
HALSTAD        NOT AVBL
FOSSTON        CLOUDY    23  19  86 S12       29.87F WCI  12
BAUDETTE       LGT SNOW  14  10  84 SE8       29.87F FOG     WCI   3
WASKISH        LGT SNOW  14  10  85 SE7       29.89F WCI   4
CROOKSTON      FAIR      27  25  93 S12       29.87F WCI  16
$$
  *****  WEATHER ACROSS CENTRAL AND WEST MINNESOTA  *****

CITY           SKY/WX    TMP DP  RH WIND       PRES   REMARKS
BEMIDJI        LGT SNOW  16  13  89 SE9       29.89F WCI   4
PARK RAPIDS    CLOUDY    18  15  88 S9        29.90F WCI   7
WADENA         CLOUDY    25  19  80 S3        29.91F
DETROIT LAKES  FAIR      28  25  86 SW8       29.90F WCI  20
MOORHEAD       FAIR      32  27  80 CALM      29.92F
FERGUS FALLS   FAIR      32  27  80 S8        29.95F WCI  25
ELBOW LAKE     FAIR      33  28  83 W10       29.94F HAZE    WCI  25
MORRIS MN      FAIR      36  27  69 SW13G20   29.94F
STAPLES        CLOUDY    18  16  93 S6        29.94F WCI   9
WHEATON        FAIR      37  28  70 SW12      29.95F
$$
  *****  WEATHER ELSEWHERE ACROSS MINNESOTA  *****

CITY           SKY/WX    TMP DP  RH WIND       PRES   REMARKS
DULUTH         CLOUDY    10   3  73 N12       29.96F WCI  -5
INTRNTL FALLS  LGT SNOW   9   4  80 S5        29.94F WCI   1
ELY            PTSUNNY    3  -2  78 CALM      29.95F
CLOQUET        PTSUNNY   10   3  72 CALM      29.98F
BRAINERD       CLOUDY    14   9  80 S8        29.97F HAZE    WCI   3
HIBBING        FLURRIES   7   2  80 SE3       29.96F
ALEXANDRIA     FAIR      25  20  81 SW12      29.94F WCI  14
SAINT CLOUD    CLOUDY    17  12  80 S8        30.02F WCI   7
MINNEAPOLIS    FLURRIES  16   8  71 S5        30.07F WCI   9
$$

  *****  WEATHER ACROSS SOUTH DAKOTA  *****

CITY           SKY/WX    TMP DP  RH WIND       PRES   REMARKS
SIOUX FALLS    PTSUNNY   35  28  75 SW9       30.07F
BROOKINGS      FAIR      36  27  69 W15       30.01F
WATERTOWN      FAIR      36  29  75 SW16      29.97F
HURON          FAIR      44  29  55 MISG      30.02F
SISSETON         N/A     40  30  67 SW12      29.93F
ABERDEEN       FAIR      42  29  59 SW10      29.97F
MITCHELL       FAIR      41  30  65 SW12      30.07F
PIERRE         FAIR      44  28  53 W10       30.01F
MOBRIDGE       FAIR      47  27  45 W7        29.95F
RAPID CITY     FAIR      55  20  25 CALM      30.06F
$$

  *****  SOME WEATHER IN NEARBY STATES *****

CITY           SKY/WX    TMP DP  RH WIND       PRES   REMARKS
GLASGOW MT     FAIR      43  21  41 W7        29.94F
GREAT FALLS MT FAIR      53   2  12 SW24G33   30.15F
CHEYENNE WY    FAIR      59  14  17 W24G33    30.27F
SCOTTSBLUFF NE FAIR      57  18  21 W13       30.19F
OMAHA NE       PTSUNNY   35  19  52 S7        30.21F
DES MOINES IA  PTSUNNY   29   7  39 W9G16     30.17F WCI  20
DAVENPORT IA   FAIR      25   7  46 NW15      30.15F WCI  13
CHICAGO IL     FAIR      21   7  54 NW14G21   30.04F WCI   8
EAU CLAIRE WI  CLOUDY    11   1  64 W8        30.08F WCI  -1
LA CROSSE WI   CLOUDY    19   3  49 W7        30.12F WCI  10
$$

  *****  SOME NATIONAL WEATHER *****

CITY           SKY/WX    TMP DP  RH WIND       PRES   REMARKS
LA GUARDIA NY  LGT RAIN  47  35  63 W13       29.43F
RALEIGH NC     PTSUNNY   52  30  43 NW12G20   29.62F
ATLANTA GA     PTSUNNY   47  33  58 NW20G30   29.94R
NEW ORLEANS LA FAIR      62  36  37 N12       30.14F
OKLAHOMA CITY  FAIR      47  26  44 NW10      30.37F
ALBUQUERQUE NM FAIR      47   5  18 CALM      30.46F
SALT LAKE CITY FOG       24  23  96 CALM      30.59F VSB 1/2
LOS ANGELES CA FAIR      78   1   5 CALM      30.16F
BOISE ID       CLOUDY    24  21  88 SW5       30.65F FOG     WCI  18
SEATTLE WA     CLOUDY    42  32  67 CALM      30.48S
$$

*** WEATHER ACROSS MANITOBA...SASKATCHEWAN AND ONTARIO ***
                ***ONTARIO***

CITY           SKY/WX    TMP DP  RH WIND       PRES   REMARKS
GERALDTON      FLURRIES  -4 -13  65 W5        29.94F WCI -15
THUNDER BAY    MOSUNNY    5  -6  61 W7        30.01F WCI  -7
SIOUX LOOKOUT  PTSUNNY    0  -8  71 VRB2      29.92F
TORONTO        PTSUNNY   21   9  58 NW21      29.58R WCI   6
BIG TROUT LK   SUNNY     -9 -15  77 S3        29.92F
PICKLE LAKE    MOSUNNY   -6 -13  71 NW3       29.90F
DRYDEN         PTSUNNY    1   0  92 S6        29.90F WCI -10
KENORA         LGT SNOW   9   5  85 S9        29.86F WCI  -5
$$
                *** MANITOBA***

CITY           SKY/WX    TMP DP  RH WIND       PRES   REMARKS
BRANDON        MOSUNNY   36  27  69 W10       29.72F
DAUPHIN        SUNNY     39  27  60 SW12      29.63F
ISLAND LAKE    PTSUNNY   -2  -6  84 SE7       29.85F WCI -16
PILOT MOUND      N/A     34  28  80 SW6         N/A
THE PAS        CLOUDY    19  16  86 SE7       29.60F FOG     WCI  10
THOMPSON       LGT SNOW   5   0  78 SE3       29.72F
WINNIPEG       CLOUDY    21  18  86 SE13      29.79F WCI   9
LYNN LAKE      LGT SNOW  10   9  92 SE8       29.55F WCI  -1
CHURCHILL      PTCLDY   -17 -22  76 CALM      29.91F
GILLAM         MOCLDY    -8 -13  77 E3        29.86F
$$
                ***SASKATCHEWAN***

CITY           SKY/WX    TMP DP  RH WIND       PRES   REMARKS
ESTEVAN        MOSUNNY   43  27  52 SW14      29.80F
KINDERSLEY     PTSUNNY   37  28  70 W13G20    29.83R
LLOYDMINSTER   PTSUNNY   41  30  65 W17G24    29.82S
PRINCE ALBERT  NOT AVBL
REGINA         PTSUNNY   39  30  70 SW9       29.74F
YORKTON        SUNNY     39  30  70 SW12G20   29.64F
N. BATTLEFORD  SUNNY     39  28  65 W14       29.78S



USA.gov is the U.S. government's official web portal to all federal, state and local government web resources and services.